TIME,DELAY(SENSOR),PRES,T(CTD),SAL,OXYGEN,RAWTEMP,T(OPTODE),TCPHASE,TURBIDITY,TURBIDITY_GAIN,FLUOR,BETA,CDOM,ED411.5,ED443.8,ED489.6,PAR,COMP,TILT,TILTY(TILT),CHECK
1341654782,6468,241.4700012207031200,4.9128999710083010,34.9860992431640600,350.6781005859375000,761.4818115234375000,4.8844089508056640,34.0810699462890600,16,3,48,104,63,2147243103,2147562880,2147568365,2147361380,1531,0,-12,64227
1341654843,6465,238.2200012207031200,4.9124999046325680,34.9860992431640600,350.5939941406250000,761.4739990234375000,4.8846797943115230,34.0834197998046900,66,3,50,105,64,2147245978,2147559478,2147571807,2147362509,1346,0,-12,40516
1341654904,6468,234.9100036621093800,4.9124999046325680,34.9859008789062500,350.6718139648437500,761.4741821289062000,4.8846740722656250,34.0807914733886700,16,3,48,101,64,2147244224,2147560607,2147571875,2147363739,1090,0,-12,32036
1341654965,6467,231.6000061035156200,4.9120001792907715,34.9860992431640600,350.7065124511719000,761.4766235351562000,4.8845858573913570,34.0800285339355500,16,3,48,103,64,2147242505,2147558984,2147571341,2147362239,860,0,-12,25137
1341655026,6467,228.2400054931640600,4.9119000434875490,34.9859008789062500,350.7379150390625000,761.4832153320312000,4.8843560218811035,34.0789184570312500,16,3,50,101,64,2147244154,2147561434,2147572854,2147363753,459,0,-12,48532
1341655087,6504,224.9199981689453000,4.9116001129150390,34.9860992431640600,350.6300964355469000,761.4902954101562000,4.8841090202331540,34.0828208923339840,16,3,48,102,64,2147244346,2147559844,2147573097,2147363012,3564,0,-12,60589
1341655148,6468,221.5899963378906200,4.9116997718811035,34.9858016967773440,350.7786865234375000,761.4954833984375000,4.8839240074157715,34.0778083801269500,16,3,50,100,64,2147246815,2147561641,2147570404,2147364502,3118,0,-12,9925
1341655209,6468,218.3099975585937500,4.9112000465393070,34.9859008789062500,350.7672119140625000,761.5023803710938000,4.8836860656738280,34.0785102844238300,16,3,48,103,64,2147242980,2147560922,2147570408,2147363218,2775,0,-12,31190
1341655270,6467,215.0399932861328000,4.9105000495910645,34.9864997863769500,350.6659851074219000,761.5109252929688000,4.8833889961242680,34.0820198059082000,16,3,49,113,64,2147246828,2147559766,2147570061,2147360393,2549,0,-11,2254
1341655331,6466,211.8000030517578000,4.9107999801635740,34.9858016967773440,350.7820129394531000,761.5153198242188000,4.8832340240478520,34.0781707763671900,16,3,48,104,63,2147242303,2147559286,2147571825,2147361311,2412,0,-12,24560
1341655395,6467,208.4499969482422000,4.9106001853942870,34.9860000610351560,350.8374938964844000,761.5192871093750000,4.8830909729003910,34.0764198303222660,16,3,49,106,63,2147242189,2147559716,2147572067,2147360676,2217,0,-12,2374
1341655456,6468,205.3000030517578000,4.9102001190185550,34.9863014221191400,350.8405151367187500,761.5217285156250000,4.8830089569091800,34.0761909484863300,16,3,48,104,64,2147243926,2147560831,2147575098,2147361650,1972,0,-12,20520
1341655519,6468,202.1199951171875000,4.9103999137878420,34.9859008789062500,350.7178039550781000,761.5239257812500000,4.8829331398010250,34.0804595947265600,16,3,50,107,64,2147244356,2147561713,2147573320,2147361580,1714,0,-12,48661
1341655580,6467,199.1100006103515600,4.9099998474121090,34.9860992431640600,350.6646118164062500,761.5294189453125000,4.8827400207519530,34.0821418762207000,16,3,49,105,64,2147242587,2147562806,2147571953,2147360977,1456,0,-12,28982
1341655643,6465,196.0200042724609400,4.9099001884460450,34.9863014221191400,350.5885925292969000,761.5324096679688000,4.8826332092285160,34.0849418640136700,16,3,49,109,64,2147244772,2147558248,2147575263,2147362102,1151,0,-12,7007
1341655704,6468,193.0599975585937500,4.9096999168396000,34.9861984252929700,350.6716003417969000,761.5344238281250000,4.8825650215148930,34.0820693969726560,16,3,48,107,64,2147240694,2147561169,2147575176,2147360987,882,0,-12,23444
1341655767,6468,190.0200042724609400,4.9099001884460450,34.9856986999511700,350.7033081054687500,761.5418701171875000,4.8822989463806150,34.0814399719238300,16,3,49,105,64,2147245988,2147559753,2147577398,2147361723,536,0,-12,5066
1341655828,6469,187.0700073242187500,4.9099001884460450,34.9856986999511700,350.7579956054687500,761.5468139648438000,4.8821320533752440,34.0794410705566400,16,3,50,119,64,2147243771,2147561476,2147575976,2147365517,125,0,-12,33567
1341655891,6468,184.0599975585937500,4.9092998504638670,34.9860992431640600,350.7460021972656000,761.5474243164062000,4.8821091651916500,34.0798606872558600,16,3,49,105,64,2147246198,2147561179,2147576745,2147361868,3437,0,-12,13883
1341655952,6467,181.2100067138672000,4.9095997810363770,34.9859008789062500,350.5910034179687500,761.5466918945312000,4.8821330070495605,34.0853614807128900,16,3,49,109,64,2147243208,2147562459,2147575615,2147363145,3012,0,-12,55370
1341656016,6469,178.2500000000000000,4.9092998504638670,34.9861984252929700,350.4931030273437500,761.5474243164062000,4.8821091651916500,34.0885200500488300,16,3,50,109,64,2147239894,2147558765,2147577042,2147361627,2742,0,-12,33000
1341656077,6468,175.3600006103515600,4.9092998504638670,34.9860992431640600,350.5314025878906000,761.5513916015625000,4.8819689750671390,34.0872306823730500,16,3,50,106,64,2147241595,2147558715,2147575679,2147365467,2406,0,-12,65302
1341656140,6468,172.4400024414062500,4.9095001220703125,34.9856986999511700,350.5075073242187500,761.5590820312500000,4.8817009925842285,34.0881690979003900,16,3,50,107,63,2147245777,2147560667,2147576529,2147362550,2162,0,-12,42263
1341656201,6468,169.5599975585937500,4.9089999198913570,34.9863014221191400,350.5674133300781000,761.5529174804688000,4.8819198608398440,34.0861892700195300,16,3,50,107,64,2147242802,2147561092,2147580986,2147363273,1997,0,-12,1241
1341656264,6468,166.6300048828125000,4.9095001220703125,34.9856986999511700,350.4013977050781000,761.5526733398438000,4.8819260597229000,34.0916213989257800,16,3,49,112,64,2147242418,2147558834,2147581513,2147363574,1869,0,-12,64805
1341656325,6465,163.7799987792968800,4.9095001220703125,34.9858016967773440,350.3116149902344000,761.5504150390625000,4.8820037841796875,34.0948181152343750,16,3,49,113,63,2147242486,2147562642,2147581900,2147363337,1743,0,-12,7320
1341656388,6467,160.8800048828125000,4.9098000526428220,34.9855995178222660,350.3996887207031000,761.5435791015625000,4.8822398185729980,34.0917587280273440,16,3,50,114,64,2147241604,2147561046,2147579537,2147360667,1543,0,-12,3415
1341656449,6467,158.0700073242187500,4.9095997810363770,34.9856986999511700,350.3522033691406000,761.5402221679688000,4.8823618888854980,34.0928916931152340,16,3,50,114,64,2147242875,2147562445,2147583085,2147367660,1341,0,-12,57763
1341656512,6467,155.1999969482422000,4.9095997810363770,34.9858016967773440,350.4399108886719000,761.5443725585938000,4.8822140693664550,34.0902404785156250,16,3,50,113,64,2147242481,2147561590,2147581745,2147364443,1174,0,-12,35513
1341656573,6466,152.4100036621093800,4.9099998474121090,34.9858016967773440,350.3727111816406000,761.5283813476562000,4.8827738761901855,34.0921096801757800,16,3,50,110,64,2147241311,2147561764,2147584470,2147361612,1022,0,-12,6202
1341656637,6468,149.5399932861328000,4.9106001853942870,34.9855995178222660,350.3341979980469000,761.5194091796875000,4.8830890655517580,34.0934410095214840,16,3,50,113,64,2147244392,2147563080,2147586742,2147364003,755,0,-12,12789
1341656698,6469,146.8500061035156200,4.9109001159667970,34.9856986999511700,350.2431945800781000,761.5059814453125000,4.8835558891296390,34.0959205627441400,16,3,48,117,64,2147241682,2147561100,2147587263,2147362508,449,0,-12,10097
1341656761,6468,144.1300048828125000,4.9116997718811035,34.9854011535644500,350.1217041015625000,761.4885864257812000,4.8841648101806640,34.0997390747070300,23,3,48,116,64,2147242806,2147560799,2147584488,2147364191,86,0,-12,11295
1341656822,6469,141.4900054931640600,4.9116997718811035,34.9859008789062500,350.0693054199219000,761.4752197265625000,4.8846402168273930,34.1012115478515600,16,3,50,120,63,2147242395,2147558742,2147583249,2147362577,3210,0,-12,44154
1341656885,6468,138.7799987792968800,4.9117999076843260,34.9855003356933600,350.0101013183594000,761.4780273437500000,4.8845391273498535,34.1033592224121100,16,3,50,116,64,2147243688,2147560095,2147584617,2147364808,2952,0,-12,12019
1341656946,6467,136.1999969482422000,4.9116997718811035,34.9856986999511700,350.0046081542969000,761.4724121093750000,4.8847332000732420,34.1035804748535160,16,3,49,116,64,2147245247,2147561883,2147586464,2147361101,2721,0,-12,22270
1341657009,6467,133.5299987792968800,4.9126000404357910,34.9856986999511700,349.8060913085937500,761.4456787109375000,4.8856701850891110,34.1096992492675800,16,3,49,115,65,2147244182,2147562180,2147584324,2147361631,2513,0,-12,51903
1341657070,6466,130.9600067138672000,4.9134998321533200,34.9855995178222660,349.8608093261719000,761.4295043945312000,4.8862380981445310,34.1074295043945300,16,3,50,123,65,2147244241,2147557549,2147586892,2147359016,2277,0,-12,48405
1341657133,6468,128.3000030517578000,4.9142999649047850,34.9854011535644500,349.7818908691406000,761.4074096679688000,4.8870110511779785,34.1097297668457000,16,3,50,118,64,2147244580,2147559647,2147587935,2147362569,2042,0,-12,39915
1341657194,6504,125.6699981689453100,4.9148998260498050,34.9850997924804700,349.7128906250000000,761.3997192382812000,4.8872799873352050,34.1119804382324200,16,3,50,119,65,2147243872,2147562742,2147590975,2147363569,1856,0,-12,58328
1341657258,6467,122.9199981689453100,4.9142999649047850,34.9856986999511700,349.9885864257812500,761.3959960937500000,4.8874092102050780,34.1024589538574200,16,3,50,119,64,2147246930,2147563350,2147591894,2147363858,1701,0,-12,2189
1341657319,6465,120.2399978637695300,4.9152998924255370,34.9851989746093750,349.8558959960937500,761.3740844726562000,4.8881759643554690,34.1066818237304700,16,3,50,118,63,2147243542,2147560863,2147593558,2147362724,1524,0,-12,10512
1341657382,6467,117.4800033569336000,4.9177999496459960,34.9849014282226560,349.9338073730469000,761.3123168945312000,4.8903388977050780,34.1025085449218750,16,3,49,116,64,2147243775,2147565321,2147603939,2147363574,1350,0,-12,65134
1341657443,6469,114.8199996948242200,4.9203000068664550,34.9846992492675800,349.9695129394531000,761.2454223632812000,4.8926811218261720,34.1002502441406250,16,3,50,122,64,2147241905,2147566728,2147616918,2147366107,1110,0,-12,62378
1341657506,6468,112.0699996948242200,4.9196000099182130,34.9847984313964840,349.8476867675781000,761.2498779296875000,4.8925228118896480,34.1044197082519500,16,3,50,119,64,2147243903,2147566550,2147622061,2147368771,811,0,-12,22087
1341657567,6467,109.4899978637695300,4.9200000762939450,34.9852981567382800,349.9787902832031000,761.2285156250000000,4.8932738304138180,34.0994300842285160,16,3,50,125,64,2147243451,2147567634,2147625074,2147370157,483,0,-12,7222
1341657630,6468,106.8700027465820300,4.9210000038146970,34.9849014282226560,349.9649963378906000,761.2086181640625000,4.8939700126647950,34.0994606018066400,16,3,50,117,64,2147243122,2147566303,2147632639,2147371821,155,0,-12,61529
1341657691,6465,104.4100036621093800,4.9212999343872070,34.9851989746093750,349.9906921386719000,761.1884765625000000,4.8946738243103030,34.0983009338378900,16,3,50,120,64,2147246148,2147570892,2147636803,2147370747,3420,0,-12,65441
1341657754,6467,101.8799972534179700,4.9217000007629395,34.9850997924804700,349.9075927734375000,761.1796264648438000,4.8949828147888180,34.1007881164550800,14,3,50,119,64,2147245599,2147569261,2147637129,2147371172,3110,0,-12,48582
1341657815,6466,99.5000000000000000,4.9233999252319340,34.9850006103515600,349.9718933105469000,761.1428833007812000,4.8962688446044920,34.0982284545898440,16,3,50,120,65,2147247360,2147571706,2147654400,2147372644,2886,0,-12,55253
1341657907,6468,95.1699981689453100,4.9281001091003420,34.9846992492675800,350.0213928222656000,761.0288696289062000,4.9002609252929690,34.0941505432128900,16,3,50,124,64,2147247629,2147571195,2147665284,2147378664,2477,0,-12,3952
1341657968,6467,91.4499969482421900,4.9306001663208010,34.9844017028808600,350.0188903808594000,760.9702148437500000,4.9023170471191410,34.0929107666015600,15,3,50,122,65,2147250024,2147576003,2147685476,2147381279,2206,0,-12,35623
1341658031,6467,87.5500030517578100,4.9362001419067380,34.9842987060546900,349.9903869628906000,760.8109741210938000,4.9078869819641110,34.0907592773437500,16,3,50,122,65,2147248841,2147584246,2147709946,2147386811,1903,0,-12,656
1341658092,6468,83.7799987792968800,4.9464001655578610,34.9841003417968750,349.9956054687500000,760.5244140625000000,4.9179167747497560,34.0853004455566400,16,3,50,121,65,2147248310,2147584177,2147716621,2147388516,1713,0,-12,46934
1341658180,6465,79.1800003051757800,4.9576001167297360,34.9840011596679700,349.8190917968750000,760.1912841796875000,4.9295749664306640,34.0844497680664060,16,3,51,120,64,2147245924,2147589490,2147738473,2147391706,1595,0,-12,34856
1341658241,6467,76.7699966430664000,4.9745001792907715,34.9845008850097660,349.5616149902344000,759.6890869140625000,4.9471468925476070,34.0831604003906250,16,3,50,126,64,2147249914,2147587569,2147750536,2147394550,1488,0,-12,26324
1341658304,6467,74.2900009155273400,5.0004000663757320,34.9847984313964840,349.2394104003906000,759.0695800781250000,4.9688191413879395,34.0816688537597660,16,3,52,125,64,2147249827,2147591149,2147764630,2147399830,1217,0,-12,63268
1341658365,6468,71.7699966430664000,5.0103001594543460,34.9846992492675800,349.1883850097656000,758.7047729492188000,4.9815750122070310,34.0760993957519500,16,3,54,127,66,2147251474,2147597284,2147793823,2147406276,905,0,-12,60790
1341658428,6468,68.9800033569336000,5.0226001739501950,34.9852981567382800,349.1299133300781000,758.3958740234375000,4.9923758506774900,34.0720291137695300,16,3,53,132,65,2147256365,2147609073,2147841709,2147417466,506,0,-12,40479
1341658489,6467,66.1100006103515600,5.0385999679565430,34.9855003356933600,349.0763854980469000,757.8167114257812000,5.0126271247863770,34.0624809265136700,16,3,55,131,66,2147261668,2147625914,2147931606,2147441869,132,0,-12,48835
1341658553,6469,62.9799995422363300,5.0854001045227050,34.9866981506347660,348.9448852539062500,756.4467773437500000,5.0604968070983890,34.0400199890136700,16,3,60,132,65,2147267903,2147666481,2148082052,2147479035,121,0,-12,13353
1341658614,6466,59.8499984741210940,5.1058001518249510,34.9878997802734400,349.1520080566406000,756.1187744140625000,5.0719590187072750,34.0263900756835940,18,3,62,131,66,2147282335,2147717430,2148271693,2147527113,3491,0,-11,65313
1341658677,6469,56.5900001525878900,5.1603999137878420,34.9892997741699200,349.0859069824219000,754.6060791015625000,5.1247792243957520,33.9990081787109400,16,3,63,136,64,2147307053,2147789485,2148530920,2147594810,3081,0,-12,35922
1341658738,6465,53.5200004577636700,5.1623997688293460,34.9897994995117200,349.2333068847656000,754.2636718750000000,5.1367321014404300,33.9871711730957000,16,3,68,135,66,2147347537,2147892401,2148871734,2147688991,2739,0,-12,28138
1341658801,6468,50.4399986267089840,5.2442002296447750,34.9911994934082000,349.2319030761719000,752.4943237304688000,5.1984667778015140,33.9527702331543000,30,3,77,142,66,2147383245,2147985700,2149140767,2147775103,2173,0,-12,2742
1341658862,6504,47.5900001525878900,5.2564997673034670,34.9924011230468750,349.5755920410156000,751.7402954101562000,5.2247600555419920,33.9262619018554700,15,3,76,144,64,2147420319,2148068447,2149326683,2147840721,1833,0,-12,20749
1341658925,6504,44.7000007629394500,5.2947001457214355,34.9926986694335940,349.7215881347656000,750.6937866210938000,5.2612400054931640,33.9010696411132800,16,3,83,146,66,2147463227,2148145293,2149511743,2147913142,1828,0,-12,58434
1341658986,6469,42.0299987792968750,5.3748998641967770,34.9948997497558600,350.0073852539062500,748.6082153320312000,5.3338928222656250,33.8510704040527340,17,3,100,158,64,2147523624,2148269274,2149813558,2148023584,1580,0,-12,54647
1341659049,6470,39.4399986267089840,5.4107999801635740,34.9975013732910160,350.7029113769531000,747.4791259765625000,5.3731961250305180,33.8056297302246100,26,3,112,160,65,2147655702,2148516872,2150479135,2148260524,1419,0,-12,20825
1341659110,6470,37.0900001525878900,5.4951000213623050,35.0009002685546900,350.9136047363281000,745.0277099609375000,5.4584670066833500,33.7510795593261700,19,3,122,160,65,2147828872,2148852721,2151357357,2148581544,1388,0,-11,36480
1341659198,6470,33.3400001525878900,5.5093002319335940,35.0024986267089840,352.1583862304687500,744.2775878906250000,5.4845452308654785,33.6951408386230500,19,3,130,172,66,2148158865,2149350330,2152494838,2149077324,857,0,-12,33208
1341659259,6470,29.9400005340576170,5.6343998908996580,34.9984016418457000,352.3728027343750000,741.3701782226562000,5.5855331420898440,33.6320495605468750,28,3,215,234,64,2148541100,2149856959,2153507743,2149565617,157,0,-12,45659
1341659322,6470,26.4099998474121100,5.7813000679016110,35.0017013549804700,353.9566040039062500,736.8386840820312000,5.7426929473876950,33.4931602478027340,34,3,272,299,65,2149301503,2150879396,2155541476,2150509046,3172,0,-12,14007
1341659383,6469,23.0900001525878900,6.0307998657226560,35.0043983459472660,355.2338867187500000,729.6281127929688000,5.9921588897705080,33.3147201538085940,59,3,405,390,64,2150685417,2152690404,2158887967,2152043062,2934,0,-11,1416
1341659446,6503,19.8500003814697270,6.4144001007080080,35.0036010742187500,358.4603881835937500,719.4578247070312000,6.3427619934082030,33.0197296142578100,78,3,575,568,65,2153633041,2156447976,2165319299,2154978065,1808,1,-11,8313
1341659507,6468,17.0499992370605470,6.7632999420166020,35.0069999694824200,363.4433898925781000,707.3677978515625000,6.7576870918273930,32.6386604309082000,84,3,593,663,65,2157784246,2161366431,2172741023,2158477270,1711,0,-12,9913
1341659570,6470,14.6999998092651370,7.6279001235961910,35.0084991455078100,371.9635009765625000,684.0493164062500000,7.5524120330810550,31.9582004547119140,105,3,568,777,64,2163409851,2167652512,2181073586,2162575561,1484,2,-13,54728
1341659631,6504,13.3800001144409180,9.7190999984741210,34.9841003417968750,369.5353088378906000,627.0961914062500000,9.4647293090820310,31.0743904113769530,117,3,581,767,64,2167389197,2172212694,2187275423,2165606783,1921,0,-11,31142
1341659910,6470,10.9300003051757810,10.9916000366210940,35.0527992248535160,365.0150146484375000,581.0979003906250000,10.9822998046875000,30.4851703643798830,119,3,488,721,62,2181619615,2187705005,2204827450,2175054523,2095,-1,-11,18866
1341659990,6469,6.7699999809265140,11.0173997879028320,35.0561981201171900,364.1546936035156000,580.1367797851562000,11.0137701034545900,30.4965400695800780,110,3,340,764,64,2221540475,2229550097,2247422106,2202488776,2595,8,-9,37737
1341660055,6469,2.8399999141693115,11.0128002166748050,35.0568008422851560,364.3717956542969000,580.0684814453125000,11.0160102844238280,30.4888896942138670,114,3,222,752,62,2276692854,2284244521,2295190235,2248642381,928,-11,8,51155
1341660105,6469,0.1000000014901161,0.0000000000000000,0.0000000000000000,364.3374023437500000,580.0333862304688000,11.0171604156494140,30.4892406463623050,119,3,191,717,61,2309950157,2316667547,2322704698,2289400379,1397,-20,-29,39312
